User: anonymous   Login
Location: Unspecified
(41.4808°N, 0.0000°E)
Time: 10:44:31
(UTC+00:00)
Language:

Palapa 6 Rocket - Orbit

View from above orbital plane
View from above orbital plane
View from above satellite
View from above satellite

Ground track
Ground track

The orbit is defined by the following mean orbital elements,

1 20571U          26087.93352483 +.00000000 +00000-0 +25733-3 0 00001
2 20571  22.7420  32.4575 0468819 123.6115 240.9982 14.22103379    01
Epoch (UTC): 28 March 2026 22:24:16
Eccentricity: 0.0468819
inclination: 22.7420°
perigee height: 481 km
apogee height: 1156 km
right ascension of ascending node: 32.4575°
argument of perigee: 123.6115°
revolutions per day: 14.22103379
mean anomaly at epoch: 240.9982°

The dashed part of the orbit path shows where the satellite is in the earth's shadow,  

DLR